BEIDOU-2 IGSO-7 (43539 NORAD) Tracking and Keplerian Element Data

This shows tracking and keplerian element data for the satellite.

Feedback or suggestion? Click here.




ElementValue
Catalog43539
NameBEIDOU-2 IGSO-7
Epoch Orbit2171
Epoch Day159.94547685
Epoch Year2024
RAAN169.4481
Inclination55.1411
Eccentricity0.0075466
Argument of Perigee233.6324
Mean Anonmoly305.336
Mean Motion1.0025592
Decay Rate-6.8E-07
L11 43539U 18057A 24159.94547685 -.00000068 00000+0 00000+0 0 9997
L22 43539 55.1411 169.4481 0075466 233.6324 305.3360 1.00255920 21712



Live tracking and technical data element details for BEIDOU-2 IGSO-7 (NORAD 43539). BEIDOU-2 IGSO-7 can be tracked NOW for your location showing map with azimuth and elevation plus other details from your city location.







IsCatalogInMostPopularTable: catalog: 43539, numindb: 657
Update: records affected: 1



GetName: 43539 BEIDOU-2 IGSO-7

Hit Count: updated at: Tue, 18 Jun 2024 00:13:50 GMT